Weather History for KI35 - April, 2014

Change the Weather History Date:

Saturday, April 12, 2014

  Actual Average (KLOZ) Record (KLOZ)
Temperature  
Mean Temperature 63 °F 56 °F  
Max Temperature 78 °F 68 °F 86 °F (1977)
Min Temperature 48 °F 43 °F 25 °F (1989)
Degree Days  
Heating Degree Days 2 10  
Month to date heating degree days 139  
Since 1 July heating degree days 3964  
Cooling Degree Days 0 1  
Month to date cooling degree days 4  
Year to date cooling degree days 7  
Growing Degree Days 13 (Base 50)    
Moisture  
Dew Point 47 °F    
Average Humidity 60    
Maximum Humidity 100    
Minimum Humidity 26    
Precipitation  
Precipitation 0.00 in 0.14 in 1.08 in (2004)
Month to date precipitation 1.56  
Year to date precipitation 12.86  
Sea Level Pressure  
Sea Level Pressure 30.13 in    
Wind  
Wind Speed 2 mph (SE)    
Max Wind Speed 14 mph    
Max Gust Speed 18 mph    
Visibility 8 miles    
Events      
T = Trace of Precipitation, MM = Missing Value Source: NWS Daily Summary

Daily Weather History Graph

Daily Weather History Graph

Search for Another Location

Airport or City:

Trip Planner

Search our weather history database for the weather conditions in past years. The results will help you decide how hot, cold, wet, or windy it might be!

Date:

Astronomy

Apr. 12, 2014 Rise Set
Actual Time 7:03 AM EDT 8:05 PM EDT
Civil Twilight 6:36 AM EDT 8:32 PM EDT
Nautical Twilight 6:05 AM EDT 9:03 PM EDT
Astronomical Twilight 5:32 AM EDT 9:36 PM EDT
Moon 5:46 PM EDT (4/12) 5:25 AM EDT (4/12)
Length of Visible Light 13h 55m
Length of Day
13h 01m
Waxing Gibbous, 93% of the Moon is Illuminated
Apr 12
Waxing Gibbous
Apr 15
Full
Apr 22
Last Quarter
Apr 29
New
May 6
First Quarter

Hourly Weather History & Observations

Time (EDT) Temp. Dew Point Humidity Pressure Visibility Wind Dir Wind Speed Gust Speed Precip Events Conditions
12:15 AM 57.2 °F 51.8 °F 82% 30.14 in 10.0 mi Calm Calm - N/A   Mostly Cloudy
12:35 AM 59.0 °F 50.0 °F 72% 30.14 in 10.0 mi Calm Calm - N/A   Scattered Clouds
12:55 AM 55.4 °F 51.8 °F 88% 30.14 in 10.0 mi Calm Calm - N/A   Clear
1:15 AM 55.4 °F 51.8 °F 88% 30.14 in 10.0 mi Calm Calm - N/A   Clear
1:35 AM 55.4 °F 51.8 °F 88% 30.14 in 10.0 mi Calm Calm - N/A   Clear
1:55 AM 55.4 °F 53.6 °F 94% 30.14 in 10.0 mi Calm Calm - N/A   Clear
2:15 AM 53.6 °F 51.8 °F 94% 30.14 in 10.0 mi Calm Calm - N/A   Clear
2:35 AM 53.6 °F 51.8 °F 94% 30.14 in 10.0 mi Calm Calm - N/A   Clear
2:55 AM 53.6 °F 51.8 °F 94% 30.14 in 10.0 mi Calm Calm - N/A   Clear
3:15 AM 51.8 °F 51.8 °F 100% 30.14 in 5.0 mi SE 4.6 mph - N/A   Scattered Clouds
3:35 AM 51.8 °F 51.8 °F 100% 30.14 in 1.2 mi East 5.8 mph - N/A   Mostly Cloudy
3:55 AM 51.8 °F 50.0 °F 94% 30.15 in 0.2 mi Calm Calm - N/A   Overcast
4:15 AM 51.8 °F 50.0 °F 94% 30.16 in 0.2 mi SSE 4.6 mph - N/A   Overcast
4:35 AM 50.0 °F 50.0 °F 100% 30.16 in 0.2 mi Calm Calm - N/A   Overcast
4:55 AM 50.0 °F 48.2 °F 94% 30.16 in 0.2 mi ESE 4.6 mph - N/A   Overcast
5:15 AM 50.0 °F 48.2 °F 94% 30.17 in 0.2 mi Calm Calm - N/A   Overcast
5:35 AM 50.0 °F 48.2 °F 94% 30.18 in 1.0 mi Calm Calm - N/A   Overcast
5:55 AM 50.0 °F 48.2 °F 94% 30.18 in 0.2 mi Calm Calm - N/A   Overcast
6:15 AM 50.0 °F 48.2 °F 94% 30.19 in 0.2 mi NE 3.5 mph - N/A   Overcast
6:35 AM 50.0 °F 48.2 °F 94% 30.20 in 0.2 mi Calm Calm - N/A   Overcast
6:55 AM 48.2 °F 46.4 °F 93% 30.21 in 0.2 mi SSE 3.5 mph - N/A   Overcast
7:15 AM 48.2 °F 46.4 °F 93% 30.21 in 0.2 mi NNE 6.9 mph - N/A   Overcast
7:35 AM 48.2 °F 46.4 °F 93% 30.22 in 0.2 mi SE 3.5 mph - N/A   Overcast
7:55 AM 48.2 °F 46.4 °F 93% 30.22 in 0.2 mi Calm Calm - N/A   Overcast
8:15 AM 48.2 °F 46.4 °F 93% 30.24 in 0.2 mi North - - N/A   Overcast
8:55 AM 51.8 °F 50.0 °F 94% 30.23 in 7.0 mi Calm Calm - N/A   Mostly Cloudy
9:15 AM 51.8 °F 51.8 °F 100% 30.23 in 10.0 mi East 3.5 mph - N/A   Clear
9:35 AM 53.6 °F 53.6 °F 100% 30.23 in 10.0 mi East 5.8 mph - N/A   Clear
9:55 AM 57.2 °F 51.8 °F 82% 30.23 in 10.0 mi East 8.1 mph - N/A   Clear
10:15 AM 62.6 °F 50.0 °F 63% 30.23 in 10.0 mi Calm Calm - N/A   Clear
10:35 AM 64.4 °F 50.0 °F 59% 30.23 in 10.0 mi Calm Calm - N/A   Clear
10:55 AM 68.0 °F 48.2 °F 49% 30.23 in 10.0 mi Calm Calm - N/A   Scattered Clouds
11:15 AM 69.8 °F 48.2 °F 46% 30.22 in 10.0 mi Calm Calm - N/A   Clear
11:35 AM 71.6 °F 48.2 °F 43% 30.22 in 10.0 mi Calm Calm - N/A   Clear
11:55 AM 71.6 °F 46.4 °F 41% 30.20 in 10.0 mi East 5.8 mph - N/A   Clear
12:15 PM 73.4 °F 46.4 °F 38% 30.19 in 10.0 mi ESE 6.9 mph - N/A   Clear
12:35 PM 73.4 °F 44.6 °F 36% 30.18 in 10.0 mi East 8.1 mph 17.3 mph N/A   Clear
12:55 PM 73.4 °F 44.6 °F 36% 30.18 in 10.0 mi ESE 6.9 mph - N/A   Clear
1:15 PM 73.4 °F 44.6 °F 36% 30.17 in 10.0 mi East 9.2 mph - N/A   Clear
1:35 PM 73.4 °F 44.6 °F 36% 30.16 in 10.0 mi East 4.6 mph - N/A   Scattered Clouds
1:55 PM 75.2 °F 44.6 °F 34% 30.15 in 10.0 mi SSW 4.6 mph - N/A   Scattered Clouds
2:15 PM 77.0 °F 44.6 °F 32% 30.14 in 10.0 mi ESE 4.6 mph - N/A   Mostly Cloudy
2:35 PM 77.0 °F 44.6 °F 32% 30.13 in 10.0 mi Calm Calm - N/A   Scattered Clouds
2:55 PM 77.0 °F 42.8 °F 29% 30.13 in 10.0 mi SSW 8.1 mph - N/A   Scattered Clouds
3:15 PM 77.0 °F 42.8 °F 29% 30.11 in 10.0 mi ESE 4.6 mph - N/A   Scattered Clouds
3:35 PM 78.8 °F 42.8 °F 28% 30.10 in 10.0 mi South 3.5 mph - N/A   Scattered Clouds
3:55 PM 78.8 °F 42.8 °F 28% 30.08 in 10.0 mi SW 13.8 mph 18.4 mph N/A   Clear
4:15 PM 78.8 °F 41.0 °F 26% 30.08 in 10.0 mi South 5.8 mph - N/A   Clear
4:35 PM 78.8 °F 41.0 °F 26% 30.06 in 10.0 mi SE 8.1 mph - N/A   Clear
4:55 PM 78.8 °F 42.8 °F 28% 30.06 in 10.0 mi SSE 4.6 mph - N/A   Clear
5:15 PM 78.8 °F 42.8 °F 28% 30.05 in 10.0 mi Calm Calm - N/A   Clear
5:35 PM 78.8 °F 41.0 °F 26% 30.06 in 10.0 mi SSE 3.5 mph - N/A   Clear
5:55 PM 78.8 °F 41.0 °F 26% 30.05 in 10.0 mi South 3.5 mph - N/A   Clear
6:15 PM 77.0 °F 41.0 °F 28% 30.05 in 10.0 mi South 3.5 mph - N/A   Clear
6:35 PM 77.0 °F 41.0 °F 28% 30.04 in 10.0 mi Calm Calm - N/A   Clear
6:55 PM 77.0 °F 42.8 °F 29% 30.04 in 10.0 mi South 4.6 mph - N/A   Clear
7:15 PM 77.0 °F 42.8 °F 29% 30.05 in 10.0 mi South 6.9 mph - N/A   Clear
7:35 PM 75.2 °F 42.8 °F 31% 30.05 in 10.0 mi Calm Calm - N/A   Clear
7:55 PM 73.4 °F 44.6 °F 36% 30.05 in 10.0 mi Calm Calm - N/A   Clear
8:15 PM 73.4 °F 44.6 °F 36% 30.05 in 10.0 mi Calm Calm - N/A   Clear
8:35 PM 73.4 °F 44.6 °F 36% 30.06 in 10.0 mi Calm Calm - N/A   Clear
8:55 PM 71.6 °F 44.6 °F 38% 30.06 in 10.0 mi Calm Calm - N/A   Clear
9:15 PM 71.6 °F 46.4 °F 41% 30.06 in 10.0 mi Calm Calm - N/A   Clear
9:35 PM 69.8 °F 46.4 °F 43% 30.06 in 10.0 mi East 5.8 mph - N/A   Clear
9:55 PM 68.0 °F 46.4 °F 46% 30.07 in 10.0 mi Calm Calm - N/A   Clear
10:15 PM 66.2 °F 46.4 °F 49% 30.07 in 10.0 mi ESE 4.6 mph - N/A   Clear
10:35 PM 66.2 °F 48.2 °F 52% 30.07 in 10.0 mi Calm Calm - N/A   Clear
10:55 PM 66.2 °F 48.2 °F 52% 30.06 in 10.0 mi South 3.5 mph - N/A   Clear
11:15 PM 66.2 °F 48.2 °F 52% 30.06 in 10.0 mi Calm Calm - N/A   Clear
11:35 PM 66.2 °F 48.2 °F 52% 30.06 in 10.0 mi Calm Calm - N/A   Clear
11:55 PM 64.4 °F 48.2 °F 56% 30.05 in 10.0 mi SW 9.2 mph - N/A   Clear